Regional Weather Roundup
Issued by NWS Upton, NY

Home | Current Version | Previous Version | Text Only | Print | Product List | Glossary On
Versions: 1 2 3 4 5 6 7 8 9 10 11 12 13 14 15 16 17 18 19 20 21 22 23 24 25 26 27 28 29 30 31 32 33 34 35 36 37 38 39 40 41 42 43 44 45 46 47 48 49 50
000
ASUS41 KOKX 230705
RWROKX

REGIONAL WEATHER ROUNDUP
NATIONAL WEATHER SERVICE NEW YORK NY
300 AM EDT WED JUL 23 2014

NOTE: "FAIR" INDICATES FEW OR NO CLOUDS BELOW 12,000 FEET WITH NO
SIGNIFICANT WEATHER AND/OR OBSTRUCTIONS TO VISIBILITY.

NYZ071-072-176-178-NJZ106-104-230800-
NEW YORK CITY METRO AREA


CITY           SKY/WX    TMP DP  RH WIND       PRES   REMARKS
CENTRAL PARK   CLEAR     75  62  64 VRB5      30.04F
LAGUARDIA APRT PTCLDY    76  62  62 S10       30.00F
KENNEDY INTL   PTCLDY    73  62  68 SW8       30.02F
NEWARK/LIBERTY PTCLDY    73  63  70 SW7       30.01F
BRNX BOT. GARD   N/A     75  63  64 SW7       30.03R
TETERBORO      CLEAR     75  64  68 SW6       30.00F
$$

NYZ177-179-078>081-230800-
LONG ISLAND NEW YORK

CITY           SKY/WX    TMP DP  RH WIND       PRES   REMARKS
FARMINGDALE    CLEAR     71  62  73 SW7       30.02F
ISLIP          CLEAR     73  65  75 SW6       30.00F
SHIRLEY        CLEAR     72  67  84 SW6       30.02F
WESTHAMPTON    CLEAR     71  68  90 SW8       30.03F
MONTAUK POINT    N/A     72  66  81 SW8       30.02F
$$

NYZ052-065-067-230800-
HUDSON VALLEY

CITY           SKY/WX    TMP DP  RH WIND       PRES   REMARKS
WHITE PLAINS   CLEAR     73  64  73 W3        30.01F
NEWBURGH       NOT AVBL
MONTGOMERY     CLEAR     70  67  90 CALM      30.00F
POUGHKEEPSIE   CLEAR     71  67  87 CALM      29.98F
ALBANY         MOCLDY    75  68  78 S7        29.93F
$$

NJZ001-105-106-008-010-013-015-019>022-104-230800-
NEW JERSEY

CITY           SKY/WX    TMP DP  RH WIND       PRES   REMARKS
NEWARK/LIBERTY PTCLDY    73  63  70 SW7       30.01F
TETERBORO      CLEAR     75  64  68 SW6       30.00F
CALDWELL       CLEAR     73  63  70 SW3       30.02S
MORRISTOWN     CLEAR     72  64  78 CALM      30.02F
SOMERVILLE     CLEAR     67  64  90 S3        30.01F
LINDEN         FAIR      74  63  68 W5        30.03F
SUSSEX         PTCLDY    72  68  87 CALM      30.01F
ANDOVER          N/A     69  66  90 CALM      30.03F
TRENTON        CLEAR     70  61  73 CALM      30.03S
MILLVILLE      PTCLDY    70  67  90 SW3       30.05F
ATLANTIC CITY  MOCLDY    70  67  90 S7        30.04F
WRIGHTSTOWN    PTCLDY    67  66  96 S3        30.01F
TOMS RIVER     MOCLDY    70  66  88 SW3       30.04F
BELMAR         MOCLDY    70  63  78 SW5       30.03F
$$

PAZ047>061-062-071-230800-
EASTERN PENNSYLVANIA

CITY           SKY/WX    TMP DP  RH WIND       PRES   REMARKS
PHILADELPHIA   PTCLDY    73  64  73 S8        30.04F
ALLENTOWN      CLEAR     69  65  86 CALM      30.02F
SCRANTON       PTCLDY    73  66  78 S3        30.02F
$$

CTZ002-004>006-009-010-012-RIZ004-006-007-MAZ004-011-015-230800-
SOUTHERN NEW ENGLAND
 IN CT

CITY           SKY/WX    TMP DP  RH WIND       PRES   REMARKS
BRADLEY INTL   CLEAR     72  64  76 S8        29.97F
HARTFORD       CLEAR     71  64  78 S7        29.98F
DANBURY        CLEAR     72  63  73 SW7       30.02F
WTRBRY/OXFORD  CLEAR     68  63  83 SW5       30.03F
BRIDGEPORT     CLEAR     74  66  76 SW9       30.00F
MERIDEN        CLEAR     70  64  81 S3        29.99F
NEW HAVEN      CLEAR     75  65  70 SW5       30.00F
CHESTER        FAIR      70  63  78 SW6       30.01F
GROTON         CLEAR     70  65  84 SW7       30.00F
WILLIMANTIC    CLEAR     71  63  75 CALM      30.00F

 IN RI

CITY           SKY/WX    TMP DP  RH WIND       PRES   REMARKS
PROVIDENCE     CLEAR     72  62  71 S3        29.99F
BLOCK ISLAND   CLEAR     68  64  88 SW12      30.02F
WESTERLY       CLEAR     71  64  78 CALM      30.01F

 IN MA

CITY           SKY/WX    TMP DP  RH WIND       PRES   REMARKS
BOSTON         CLEAR     73  65  75 SW12      29.95F
WORCESTER      CLEAR     67  64  90 SW9       30.00F
WESTFIELD      CLEAR     71  65  81 S6        29.97F
PROVINCETOWN   CLEAR     70  64  83 SW9       29.98F
NANTUCKET      CLEAR     67  65  93 SW10      30.02F
$$

ANZ330-335-338-340-345-350-353-355-230800-
COASTAL MARINE OBSERVATIONS


STATION/POSITION TIME  SKY/WX   TEMP    WIND        PRES    VSBY  WAVE
                                AIR SEA DIR/SP/G                  HT/PER
                 (UTC)          (F)     (DEG/KT/KT) (MB)    (MI)  (FT/S)
NY HARB ENTRANCE NOT AVBL
4S FIRE IS       NOT AVBL
23SW MTP         0700            70 70              1016.4          3/ 5
HUDSON CANYON    0700            73 73  230/ 10/ 12 1017.5          2/ 7
EXECUTION ROCKS  0700            73 71  220/  8/ 10   N/A
WESTERN LI SOUND 0700            74     210/  8/ 10   N/A           0
CENTRAL LI SOUND 0600            73 72  220/ 14/ 16   N/A           2/ 3
EASTERN LI SOUND 0600            69 66  250/  8/ 10   N/A
ROBBINS REEF     0700            74     230/  7/  9   N/A
$$


>>>>>>>>>>>>>>>>>>>>>>>>>>>> KEY <<<<<<<<<<<<<<<<<<<<<<<<<<<
>                                                          <
>     SKY/WX - SKY CONDITION/PRESENT WEATHER               <
>     TMP    - TEMPERATURE IN FAHRENHEIT                   <
>     DP     - DEWPOINT IN FAHRENHEIT                      <
>     RH     - RELATIVE HUMIDITY IN PERCENT                <
>     WIND   - DIRECTION AND SPEED IN MPH                  <
>     PRES   - MEAN SEA LEVEL PRESSURE IN INCHES OF HG     <
>     WCI    - WIND CHILL INDEX                            <
>     VSB    - VISIBILITY IN MILES                         <
>     HX     - HEAT INDEX                                  <
>     TC     - TEMPERATURE IN CELSIUS                      <
>     VRB    - VARIABLE WIND DIRECTION                     <
>                                                          <
>>>>>>>>>>>>>>>>>>>>>>>>>>>> KEY <<<<<<<<<<<<<<<<<<<<<<<<<<<




USA.gov is the U.S. government's official web portal to all federal, state and local government web resources and services.